TimeEST,TemperatureF,Dew PointF,Humidity,Sea Level PressureIn,VisibilityMPH,Wind Direction,Wind SpeedMPH,Gust SpeedMPH,PrecipitationIn,Events,Conditions,WindDirDegrees,DateUTC
12:29 AM,60.8,55.4,82,30.08,10.0,SW,3.5,-,N/A,,Mostly Cloudy,220,2013-11-07 05:29:00
12:54 AM,60.1,55.0,83,30.07,10.0,Calm,Calm,-,N/A,,Overcast,0,2013-11-07 05:54:00
1:54 AM,61.0,55.9,83,30.03,10.0,SSW,5.8,-,N/A,,Overcast,210,2013-11-07 06:54:00
2:40 AM,60.8,57.2,88,30.01,10.0,SSW,6.9,-,N/A,,Overcast,210,2013-11-07 07:40:00
2:54 AM,62.1,57.0,84,30.00,10.0,SSW,11.5,16.1,N/A,,Overcast,200,2013-11-07 07:54:00
3:54 AM,62.1,57.9,86,29.97,10.0,SW,12.7,17.3,N/A,,Overcast,220,2013-11-07 08:54:00
4:32 AM,62.6,57.2,82,29.95,10.0,SSW,11.5,20.7,N/A,,Overcast,210,2013-11-07 09:32:00
4:54 AM,62.1,57.9,86,29.95,10.0,SW,13.8,23.0,N/A,,Overcast,220,2013-11-07 09:54:00
5:54 AM,62.1,57.9,86,29.91,10.0,SW,12.7,21.9,N/A,,Overcast,220,2013-11-07 10:54:00
6:07 AM,62.6,57.2,82,29.90,10.0,SW,10.4,18.4,N/A,,Overcast,220,2013-11-07 11:07:00
6:54 AM,61.0,57.9,90,29.90,10.0,SW,8.1,-,N/A,,Overcast,230,2013-11-07 11:54:00
7:54 AM,63.0,57.0,81,29.91,10.0,SW,10.4,-,N/A,,Overcast,230,2013-11-07 12:54:00
8:49 AM,62.6,57.2,82,29.91,10.0,SW,9.2,17.3,N/A,,Overcast,230,2013-11-07 13:49:00
8:54 AM,63.0,57.0,81,29.91,10.0,SW,9.2,-,N/A,,Overcast,230,2013-11-07 13:54:00
9:20 AM,62.6,55.4,77,29.89,10.0,WSW,9.2,-,N/A,,Mostly Cloudy,240,2013-11-07 14:20:00
9:29 AM,62.6,55.4,77,29.89,10.0,SW,10.4,-,N/A,,Overcast,230,2013-11-07 14:29:00
9:54 AM,62.1,55.9,80,29.89,10.0,SW,10.4,-,N/A,,Overcast,220,2013-11-07 14:54:00
10:20 AM,62.6,55.4,77,29.88,10.0,SW,8.1,-,N/A,,Overcast,220,2013-11-07 15:20:00
10:54 AM,62.1,55.9,80,29.87,10.0,SW,9.2,-,N/A,,Overcast,220,2013-11-07 15:54:00
11:15 AM,62.6,55.4,77,29.85,10.0,SW,6.9,-,N/A,,Overcast,220,2013-11-07 16:15:00
11:54 AM,62.1,55.9,80,29.83,10.0,WSW,8.1,-,N/A,,Overcast,250,2013-11-07 16:54:00
12:54 PM,62.1,55.0,78,29.83,10.0,WNW,16.1,20.7,N/A,,Overcast,300,2013-11-07 17:54:00
1:30 PM,60.8,53.6,77,29.84,9.0,WNW,13.8,24.2,0.00,Rain,Light Rain,300,2013-11-07 18:30:00
1:54 PM,59.0,54.0,83,29.84,10.0,WNW,13.8,20.7,0.01,Rain,Light Rain,300,2013-11-07 18:54:00
2:20 PM,57.2,53.6,88,29.84,10.0,NNW,10.4,-,0.01,Rain,Light Rain,340,2013-11-07 19:20:00
2:28 PM,57.2,51.8,82,29.84,10.0,NNW,8.1,-,0.01,Rain,Light Rain,330,2013-11-07 19:28:00
2:54 PM,57.0,52.0,83,29.84,10.0,WNW,11.5,-,0.02,Rain,Light Rain,300,2013-11-07 19:54:00
3:54 PM,55.0,46.0,72,29.87,10.0,NNW,19.6,33.4,0.00,,Overcast,330,2013-11-07 20:54:00
4:02 PM,51.8,42.8,71,29.88,10.0,NNW,21.9,28.8,N/A,,Overcast,340,2013-11-07 21:02:00
4:10 PM,51.8,42.8,71,29.88,10.0,NNW,18.4,28.8,N/A,,Overcast,340,2013-11-07 21:10:00
4:54 PM,50.0,41.0,71,29.91,10.0,NNW,12.7,-,N/A,,Partly Cloudy,330,2013-11-07 21:54:00
5:54 PM,48.0,41.0,77,29.94,10.0,NNW,3.5,-,N/A,,Clear,330,2013-11-07 22:54:00
6:54 PM,46.9,39.9,77,29.96,10.0,NW,4.6,-,N/A,,Clear,320,2013-11-07 23:54:00
7:54 PM,46.9,41.0,80,29.98,10.0,NW,3.5,-,N/A,,Mostly Cloudy,310,2013-11-08 00:54:00
8:54 PM,46.0,37.0,71,29.99,10.0,NW,3.5,-,0.00,,Scattered Clouds,310,2013-11-08 01:54:00
9:54 PM,43.0,37.9,82,29.99,10.0,Calm,Calm,-,N/A,,Mostly Cloudy,0,2013-11-08 02:54:00
10:54 PM,45.0,39.0,80,29.99,10.0,Calm,Calm,-,N/A,,Overcast,0,2013-11-08 03:54:00
11:54 PM,46.9,35.1,63,30.00,10.0,NW,8.1,-,N/A,,Overcast,310,2013-11-08 04:54:00